Location: Tarleton Observatory
(32.2162°N, 98.0976°W)
Time: 02:44:26
(UTC-05:00)

Daily predictions for brighter satellites

Satellite Brightness Start Highest point End
(mag) Time Altitude Azimuth Time Altitude Azimuth Time Altitude Azimuth
NOSS 3-2 (A) 3.6 00:07:49 67° N 00:07:49 67° N 00:13:30 10° NNE
USA 234 3.2 00:09:10 75° W 00:09:10 75° W 00:15:18 10° NW
Cosmos 1092 Rocket 4.3 00:11:45 61° WNW 00:11:45 61° WNW 00:17:44 10° N
Cosmos 2082 Rocket 4.1 00:31:10 20° NE 00:31:10 20° NE 00:33:08 10° NE
Atlas Centaur 2 3.9 00:24:00 10° W 00:28:39 36° WSW 00:28:39 36° WSW
Cosmos 1943 Rocket 4.0 00:28:57 10° NW 00:31:58 22° W 00:31:58 22° W
Timation 2 Rocket 4.5 00:52:59 63° NNW 00:52:59 63° NNW 00:58:49 10° NNE
CENTAUR R/B 3.9 01:03:49 28° ENE 01:03:49 28° ENE 01:07:01 10° NE
CZ-4C R/B 3.8 01:02:16 28° NW 01:02:19 28° NW 01:07:16 10° N
Cosmos 1980 Rocket 3.6 01:48:54 10° N 01:53:00 33° NE 01:53:00 33° NE
CZ-2C R/B 4.4 01:56:05 38° NNE 01:56:05 38° NNE 02:00:04 10° N
Lacrosse 5 3.7 01:52:14 10° NNW 01:55:03 27° N 01:55:03 27° N
Cosmos 2344 4.3 01:56:18 42° WNW 01:57:35 45° NW 02:05:41 10° NNE
BREEZE-M TANK 4.4 01:48:02 10° WSW 02:04:17 49° NW 02:08:15 10° NE
Cosmos 2082 Rocket 4.0 02:12:58 23° NW 02:12:58 23° NW 02:16:39 10° N
Cosmos 1697 Rocket 3.9 02:07:33 10° NNW 02:10:49 36° NNW 02:10:49 36° NNW
Cosmos 1833 Rocket 4.3 02:15:42 28° NW 02:15:42 28° NW 02:19:25 10° N
ATLAS 5 CENTAUR R/B 4.2 02:18:55 16° ENE 02:18:55 16° ENE 02:20:19 10° NE
Lacrosse 5 rocket 4.1 02:16:04 10° N 02:19:00 17° NE 02:19:06 17° NE
USA 215 4.1 02:22:08 10° NE 02:26:49 40° E 02:26:49 40° E
CZ-2C R/B 4.4 02:40:00 10° NNW 02:43:13 24° NW 02:43:13 24° NW
CENTAUR R/B 3.9 02:50:58 26° WNW 02:51:43 27° NW 02:57:16 10° N
BREEZE-M DEB (TANK) 4.2 02:54:26 62° ENE 02:54:26 62° ENE 03:04:20 10° NE
SL-16 R/B 2.9 02:54:41 10° N 03:00:10 48° ENE 03:00:26 48° ENE
Cosmos 2322 Rocket 2.5 03:04:40 10° NNW 03:09:55 63° NE 03:09:55 63° NE
CZ-2D R/B 4.1 03:17:32 10° NE 03:21:07 18° E 03:22:42 16° ESE
USA 229 DEB 4.0 03:24:10 49° SE 03:25:00 52° ESE 03:31:42 10° NE
USA 229 4.1 03:24:15 49° SE 03:25:07 51° ESE 03:31:48 10° NE
Meteor 2-10 4.4 03:22:46 10° NNW 03:27:08 59° NNW 03:27:08 59° NNW
ERS-2 4.4 03:25:06 10° N 03:26:34 22° N 03:26:34 22° N
OAO 3 Rocket 3.9 03:35:55 49° ENE 03:35:55 49° ENE 03:39:30 10° E
NPP 3.8 03:30:38 10° N 03:35:33 61° NW 03:35:33 61° NW
Cosmos 2181 Rocket 3.9 03:31:24 10° N 03:37:36 81° E 03:38:41 62° SSE
Cosmos 1980 Rocket 4.2 03:33:20 10° NW 03:34:44 16° WNW 03:34:44 16° WNW
Cosmos 2360 Rocket 3.5 03:33:38 10° N 03:38:50 38° ENE 03:44:02 10° SE
Cosmos 2298 Rocket 4.4 03:38:45 53° ESE 03:39:02 54° ESE 03:44:13 10° NNE
CBERS 1 LM4 rocket 4.5 03:36:06 10° NNE 03:41:28 88° NNW 03:41:28 88° NNW
Cosmos 304 Rocket 4.3 03:36:53 10° N 03:41:38 56° ENE 03:42:09 53° E
Cosmos 923 Rocket 3.9 03:37:38 10° NNW 03:42:31 77° NNW 03:42:31 77° NNW
Spot 4 Rocket 3.9 03:43:07 10° NNE 03:48:17 78° ESE 03:48:32 76° SE
Cosmos 1680 Rocket 3.4 03:45:41 10° NNW 03:50:55 84° ENE 03:51:23 74° SE
DELTA 2 R/B (1) 4.4 03:53:15 36° SE 03:53:15 36° SE 03:58:04 10° E
Cosmos 2219 3.2 03:54:15 60° SSE 03:55:11 73° ESE 04:00:55 10° NNE
IRS-1C 4.2 03:52:23 10° N 03:57:37 59° WNW 03:57:50 59° W
Cosmos 2074 Rocket 4.0 03:55:49 48° SSE 03:57:40 76° E 04:03:55 10° N
Lacrosse 5 rocket 3.9 03:54:11 10° NW 03:54:44 13° NW 03:54:44 13° NW
ATLAS 5 CENTAUR R/B 3.0 04:00:27 30° WNW 04:00:43 30° NW 04:05:13 10° N
Cosmos 2322 4.2 03:56:01 10° NNW 04:01:41 60° ENE 04:06:50 12° SSE
Resurs 1-4 Rocket 2.7 03:58:37 10° NNE 04:03:48 51° E 04:05:41 35° SSE
Cosmos 1933 3.6 04:00:07 10° N 04:03:32 63° N 04:03:32 63° N
Cosmos 2184 Rocket 4.0 04:03:57 45° S 04:06:06 86° E 04:12:28 10° N
ERS-1 4.4 04:01:33 10° N 04:06:42 76° WNW 04:07:22 65° SW
Cosmos 1455 4.5 04:03:50 10° NNW 04:04:44 15° NW 04:04:44 15° NW
ARIANE 5 R/B 2.4 04:04:35 10° NNE 04:09:41 86° ESE 04:10:39 59° S
Cosmos 2327 Rocket 4.3 04:08:45 48° SSW 04:10:34 84° W 04:16:48 10° N
USA 215 4.0 04:05:11 10° NNE 04:11:14 42° NW 04:14:10 27° W
Cosmos 1898 Rocket 3.3 04:13:44 61° SSW 04:14:38 81° WNW 04:19:50 10° NNE
ATLAS CENTAUR R/B 3.4 04:11:06 10° N 04:15:08 30° NE 04:18:53 10° ESE
SL-16 R/B 2.9 04:11:19 11° SSE 04:17:21 66° ENE 04:23:33 10° N
Cosmos 1937 Rocket 3.6 04:16:19 46° S 04:17:53 75° ESE 04:23:11 10° NNE
IRS-1D 3.5 04:12:38 10° NNE 04:17:59 89° WNW 04:19:30 48° SSW
Okean O Rocket 3.4 04:14:39 10° NE 04:18:23 27° E 04:21:02 15° SE
Cosmos 1892 4.0 04:24:34 25° SE 04:26:13 37° E 04:29:49 10° NNE
Cosmos 1869 Rocket 4.2 04:28:06 39° WNW 04:28:06 39° WNW 04:32:11 10° N
GENESIS II 4.2 04:26:20 10° NW 04:30:18 64° WSW 04:30:18 64° WSW
Cosmos 389 Rocket 4.1 04:28:51 10° NNE 04:32:16 35° E 04:35:28 11° SE
COSMOS 2428 3.4 04:29:31 10° N 04:35:06 55° ENE 04:40:38 10° SE
CZ-2D R/B 4.0 04:32:03 10° NNE 04:36:02 52° E 04:37:55 28° SSE
Cosmos 2221 Rocket 4.2 04:35:04 10° NNW 04:39:14 36° W 04:39:21 36° W
MOS 1-B 4.3 04:33:47 10° N 04:39:34 77° WNW 04:42:35 30° SSW
SEDSat Delta rocket 4.1 04:37:42 25° W 04:41:35 53° SSW 04:48:04 10° SE
SL-16 R/B 3.9 04:40:06 10° WNW 04:42:14 16° W 04:42:14 16° W
SME Rocket 4.3 04:38:14 10° SSE 04:45:11 63° ENE 04:49:53 10° N
Cosmos 220 Rocket 3.8 04:45:49 39° SSW 04:47:21 84° WNW 04:51:40 10° NNE
H-2A R/B 3.8 04:42:28 17° W 04:47:22 81° S 05:32:38 10° ESE
ASTRO E2 3.8 04:47:05 27° S 04:47:33 28° SSE 04:51:01 10° E
NOSS 3-1 (C) 3.5 04:45:10 25° SSW 04:48:36 67° ESE 04:54:46 10° NE
UNKNOWN OBJECT B 2.9 04:49:45 10° N 04:53:34 59° WNW 04:54:55 36° SW
Cosmos 2322 Rocket 4.2 04:51:23 10° WNW 04:51:40 11° WNW 04:51:40 11° WNW
Cosmos 2237 4.2 04:51:43 10° NNW 04:57:29 89° WSW 05:03:11 10° SSE
Cosmos 1733 Rocket 2.9 04:55:39 26° SSW 04:58:02 77° W 05:02:25 10° N
Cosmos 2219 Rocket 3.5 04:54:07 10° N 04:59:23 41° ENE 05:04:36 10° SE
CZ-2D R/B 2.6 04:56:20 10° N 05:01:17 43° WNW 05:04:02 24° SW
Coronas F rocket 2.1 05:02:03 22° SSE 05:03:31 50° E 05:06:11 10° NNE
Centaur AC-125 3.3 05:05:11 19° S 05:05:40 20° SSE 05:08:41 10° ESE
Meteor 2-3 Rocket 4.3 05:04:44 23° SW 05:07:51 41° WNW 05:13:19 10° N
GPS 2-05 Rocket1 3.0 05:05:59 15° WNW 05:08:33 67° NNE 05:11:56 10° E
GPS 2-04 Rocket1 3.3 05:08:41 25° SSW 05:09:54 33° SSE 05:13:03 10° E
Meteor 2-10 Rocket 3.5 05:08:07 10° N 05:13:15 88° E 05:18:33 10° S
MOZ.5/SAFIR/RUBIN 5/SL-8 4.3 05:12:43 10° SSE 05:17:19 63° ENE 05:21:59 10° N
Okean 1-7 4.4 05:14:15 10° NW 05:17:25 20° W 05:18:25 18° WSW
OAO 3 Rocket 3.1 05:13:48 10° W 05:18:23 59° SSW 05:23:01 10° ESE
ADEOS II 4.0 05:14:40 10° NE 05:19:07 27° E 05:23:31 10° SSE
Cosmos 2341 Rocket 4.2 05:16:40 12° SSW 05:22:21 57° W 05:28:36 10° N
Cosmos 2360 Rocket 3.3 05:18:12 10° NW 05:22:32 23° W 05:25:45 14° SW
Cosmos 2227 Rocket 2.2 05:17:47 14° SSW 05:22:43 81° WNW 05:28:24 10° NNE
Sich 1 Rocket 3.6 05:22:52 12° SSW 05:26:47 59° W 05:31:07 10° N
Cosmos 1378 Rocket 4.5 05:24:00 10° N 05:28:21 51° E 05:32:39 10° SSE
CZ-2C R/B 3.8 05:24:36 10° S 05:28:58 53° W 05:33:26 10° NNW
Nadezhda 3 Rocket 4.3 05:28:12 10° NNW 05:34:02 46° W 05:39:52 10° SSW
SL-8 Rocket 4.0 05:28:59 10° S 05:35:11 80° W 05:41:28 10° N
Cosmos 1908 Rocket 3.6 05:31:12 10° SSW 05:35:35 65° W 05:39:58 10° N
CZ-4B R/B 3.4 05:30:29 10° N 05:35:51 55° WNW 05:41:17 10° SSW
NOSS 3-1 (A) 3.5 05:30:57 13° SW 05:36:10 68° WNW 05:42:30 10° NNE
DELTA 2 R/B (1) 3.8 05:34:01 12° WSW 05:39:16 68° NNW 05:44:51 10° ENE
Cosmos 1606 3.0 05:36:14 10° N 05:40:01 70° E 05:43:47 10° SSE
Cosmos 292 Rocket 4.5 05:36:07 10° NW 05:40:22 32° W 05:44:36 10° SSW
Cosmos 1408 2.9 05:37:33 10° S 05:41:10 71° E 05:44:51 10° N
Cosmos 2366 rocket 4.1 05:35:44 10° S 05:41:54 81° E 05:48:05 10° N
GOES 2 Rocket 3.3 05:37:30 11° WSW 05:41:59 53° S 05:46:04 10° ESE
Cosmos 2333 4.5 05:36:53 10° NNW 05:42:17 47° WSW 05:47:43 10° S
Resurs 1-4 Rocket 3.8 05:39:55 10° NNW 05:43:09 17° WNW 05:46:23 10° WSW
Meteor 1-10 Rocket 4.4 05:37:38 10° NNW 05:43:14 55° W 05:48:56 10° S
SL-08 R/B 4.5 05:39:40 10° S 05:45:47 81° W 05:51:56 10° N
Cosmos 1674 Rocket 4.0 05:41:55 10° NNW 05:45:57 39° W 05:49:59 10° SSW
Cosmos 1782 3.2 05:43:26 10° NNW 05:47:15 44° W 05:51:01 10° SSW
Iridium 4 Rocket 2.9 05:46:19 10° N 05:50:28 65° W 05:54:35 10° S
ATLAS CENTAUR R/B 2.8 05:50:46 10° WNW 05:53:57 20° WSW 05:56:57 10° SSW
Okean O Rocket 3.1 05:51:16 10° NNW 05:54:34 21° WNW 05:57:49 10° WSW
Meteor 1-31 Rocket 4.4 05:51:44 10° NNE 05:55:17 35° E 05:58:51 10° SSE
Cosmos 2297 Rocket 2.3 05:49:49 10° SSW 05:55:24 61° WNW 06:01:00 10° NNE
CZ-4B R/B 3.9 05:51:59 10° N 05:55:45 33° WNW 05:59:39 10° SW
Thor Agena Rocket 4.0 05:50:53 10° S 05:55:50 41° W 06:00:49 10° NNW
Cosmos 1862 3.7 05:55:55 10° SSW 05:59:43 44° W 06:03:32 10° N
ATLAS 2AS CENTAUR R/B 3.3 05:52:56 10° SSW 06:00:07 70° ESE 06:08:00 10° NE
Cosmos 1825 2.3 05:57:03 10° SSW 06:00:46 56° W 06:04:31 10° N
SL-16 R/B 4.1 05:57:56 10° SW 06:01:20 15° W 06:04:45 10° WNW
Cosmos 1125 Rocket 4.2 05:57:15 10° SW 06:02:06 37° WNW 06:07:01 10° N
